| time (UTC) | temp F | wind direction | speed MPH | gust MPH | rain 1hr in | rain 24hr in | rain mn in | humidity % | barometer mb |
| 20260508231221 | 57 | 114 | 9.0 | 11.0 | 0.00 | 0.04 | 0.04 | 87 | 1007.7 |
| 20260508230718 | 57 | 99 | 5.0 | 12.0 | 0.00 | 0.04 | 0.04 | 88 | 1007.5 |
| 20260508230214 | 57 | 121 | 7.0 | 12.0 | 0.00 | 0.04 | 0.04 | 87 | 1007.6 |
| 20260508225712 | 57 | 96 | 7.0 | 10.0 | 0.00 | 0.04 | 0.04 | 87 | 1007.8 |
| 20260508225208 | 57 | 146 | 4.0 | 9.0 | 0.00 | 0.04 | 0.04 | 88 | 1007.8 |
| 20260508224706 | 57 | 100 | 9.0 | 11.0 | 0.00 | 0.04 | 0.04 | 87 | 1007.6 |
| 20260508224203 | 57 | 99 | 9.0 | 12.0 | 0.00 | 0.04 | 0.04 | 87 | 1007.8 |
| 20260508223701 | 57 | 127 | 5.0 | 11.0 | 0.00 | 0.04 | 0.04 | 87 | 1007.9 |
| 20260508223158 | 57 | 111 | 6.0 | 12.0 | 0.00 | 0.04 | 0.04 | 87 | 1007.8 |
| 20260508222655 | 56 | 150 | 8.0 | 15.0 | 0.00 | 0.04 | 0.04 | 87 | 1007.7 |
| 20260508222153 | 57 | 117 | 7.0 | 15.0 | 0.00 | 0.04 | 0.04 | 87 | 1008.0 |
| 20260508221648 | 57 | 130 | 13.0 | 17.0 | 0.00 | 0.04 | 0.04 | 86 | 1007.9 |
| 20260508221144 | 57 | 96 | 5.0 | 11.0 | 0.00 | 0.04 | 0.04 | 86 | 1007.9 |
| 20260508220641 | 57 | 117 | 7.0 | 14.0 | 0.00 | 0.04 | 0.04 | 86 | 1007.9 |
| 20260508220138 | 57 | 113 | 10.0 | 11.0 | 0.00 | 0.04 | 0.04 | 86 | 1007.9 |
| 20260508215634 | 57 | 103 | 6.0 | 9.0 | 0.00 | 0.04 | 0.04 | 86 | 1007.7 |
| 20260508215131 | 57 | 105 | 7.0 | 10.0 | 0.00 | 0.04 | 0.04 | 86 | 1007.8 |
| 20260508214628 | 57 | 152 | 5.0 | 16.0 | 0.00 | 0.04 | 0.04 | 85 | 1007.8 |
| 20260508214125 | 57 | 106 | 8.0 | 14.0 | 0.00 | 0.04 | 0.04 | 85 | 1007.8 |
| 20260508213622 | 57 | 102 | 6.0 | 10.0 | 0.00 | 0.04 | 0.04 | 86 | 1007.8 |
| 20260508213118 | 57 | 76 | 7.0 | 14.0 | 0.00 | 0.04 | 0.04 | 86 | 1007.8 |
| 20260508212615 | 57 | 123 | 6.0 | 9.0 | 0.00 | 0.04 | 0.04 | 86 | 1007.9 |
| 20260508212111 | 57 | 129 | 4.0 | 12.0 | 0.00 | 0.04 | 0.04 | 87 | 1007.8 |
| 20260508211606 | 56 | 99 | 5.0 | 15.0 | 0.00 | 0.04 | 0.04 | 87 | 1008.0 |
| 20260508211103 | 56 | 97 | 8.0 | 10.0 | 0.00 | 0.04 | 0.04 | 87 | 1008.1 |
| 20260508210559 | 56 | 92 | 9.0 | 9.0 | 0.00 | 0.04 | 0.04 | 87 | 1008.3 |
| 20260508210057 | 56 | 166 | 4.0 | 10.0 | 0.00 | 0.04 | 0.04 | 87 | 1008.4 |
| 20260508205554 | 56 | 109 | 7.0 | 15.0 | 0.00 | 0.04 | 0.04 | 86 | 1008.2 |
| 20260508205050 | 56 | 89 | 5.0 | 11.0 | 0.00 | 0.04 | 0.04 | 87 | 1008.5 |
| 20260508204547 | 56 | 122 | 9.0 | 14.0 | 0.00 | 0.04 | 0.04 | 86 | 1008.4 |
| 20260508204043 | 56 | 164 | 11.0 | 13.0 | 0.00 | 0.04 | 0.04 | 86 | 1008.3 |
| 20260508203539 | 56 | 156 | 6.0 | 21.0 | 0.02 | 0.04 | 0.04 | 86 | 1008.6 |
| 20260508203035 | 57 | 142 | 6.0 | 16.0 | 0.02 | 0.04 | 0.04 | 85 | 1008.4 |
| 20260508202532 | 57 | 136 | 11.0 | 17.0 | 0.00 | 0.04 | 0.04 | 84 | 1008.4 |
| 20260508202029 | 58 | 102 | 6.0 | 6.0 | 0.02 | 0.04 | 0.04 | 84 | 1008.7 |
| 20260508201526 | 59 | 108 | 7.0 | 9.0 | 0.07 | 0.04 | 0.04 | 82 | 1008.6 |
| 20260508201022 | 59 | 101 | 8.0 | 8.0 | 0.02 | 0.03 | 0.03 | 80 | 1008.5 |
| 20260508200520 | 59 | 117 | 7.0 | 8.0 | 0.00 | 0.02 | 0.02 | 76 | 1008.6 |
| 20260508200015 | 59 | 92 | 5.0 | 6.0 | 0.00 | 0.02 | 0.02 | 75 | 1008.6 |
| 20260508195512 | 60 | 96 | 6.0 | 7.0 | 0.00 | 0.02 | 0.02 | 73 | 1008.6 |
| 20260508195008 | 60 | 96 | 6.0 | 7.0 | 0.00 | 0.02 | 0.02 | 74 | 1008.7 |
| 20260508194506 | 60 | 102 | 8.0 | 8.0 | 0.00 | 0.02 | 0.02 | 72 | 1008.6 |
| 20260508194003 | 60 | 94 | 7.0 | 9.0 | 0.00 | 0.02 | 0.02 | 71 | 1008.7 |
| 20260508193459 | 62 | 93 | 5.0 | 7.0 | 0.00 | 0.02 | 0.02 | 70 | 1008.7 |
| 20260508192955 | 64 | 96 | 7.0 | 7.0 | 0.00 | 0.02 | 0.02 | 69 | 1008.7 |
| 20260508192452 | 63 | 100 | 5.0 | 7.0 | 0.00 | 0.02 | 0.02 | 70 | 1009.1 |
| 20260508191949 | 61 | 80 | 7.0 | 9.0 | 0.00 | 0.02 | 0.02 | 72 | 1009.1 |
| 20260508191446 | 62 | 83 | 7.0 | 9.0 | 0.00 | 0.02 | 0.02 | 70 | 1008.6 |
| 20260508190943 | 62 | 77 | 8.0 | 8.0 | 0.00 | 0.02 | 0.02 | 70 | 1009.2 |
| 20260508190441 | 60 | 94 | 5.0 | 7.0 | 0.00 | 0.02 | 0.02 | 73 | 1009.2 |
| 20260508185936 | 61 | 89 | 6.0 | 7.0 | 0.00 | 0.02 | 0.02 | 73 | 1009.2 |
| 20260508185434 | 59 | 101 | 7.0 | 8.0 | 0.00 | 0.02 | 0.02 | 74 | 1009.5 |
| 20260508184931 | 60 | 117 | 4.0 | 8.0 | 0.00 | 0.02 | 0.02 | 75 | 1009.4 |
| 20260508184429 | 60 | 109 | 5.0 | 6.0 | 0.00 | 0.02 | 0.02 | 74 | 1009.4 |
| 20260508183925 | 59 | 106 | 6.0 | 6.0 | 0.00 | 0.02 | 0.02 | 74 | 1009.4 |
| 20260508183422 | 59 | 103 | 6.0 | 9.0 | 0.00 | 0.02 | 0.02 | 74 | 1009.5 |
| 20260508182917 | 60 | 79 | 9.0 | 9.0 | 0.00 | 0.02 | 0.02 | 77 | 1009.6 |
| 20260508182415 | 58 | 96 | 7.0 | 11.0 | 0.00 | 0.02 | 0.02 | 78 | 1009.9 |
| 20260508181915 | 59 | 84 | 8.0 | 12.0 | 0.00 | 0.02 | 0.02 | 76 | 1009.9 |
| 20260508181412 | 59 | 76 | 7.0 | 12.0 | 0.00 | 0.02 | 0.02 | 78 | 1010.0 |
| 20260508180909 | 60 | 139 | 5.0 | 9.0 | 0.00 | 0.02 | 0.02 | 79 | 1010.0 |
| 20260508180406 | 59 | 141 | 5.0 | 7.0 | 0.00 | 0.02 | 0.02 | 81 | 1010.0 |
| 20260508175902 | 59 | 93 | 8.0 | 8.0 | 0.00 | 0.02 | 0.02 | 83 | 1010.1 |
| 20260508175359 | 57 | 86 | 7.0 | 9.0 | 0.00 | 0.02 | 0.02 | 83 | 1010.2 |
| 20260508174857 | 57 | 95 | 5.0 | 6.0 | 0.00 | 0.02 | 0.02 | 85 | 1010.2 |
| 20260508174354 | 56 | 93 | 10.0 | 10.0 | 0.00 | 0.02 | 0.02 | 86 | 1010.2 |
| 20260508173850 | 55 | 110 | 7.0 | 8.0 | 0.00 | 0.02 | 0.02 | 85 | 1010.2 |
| 20260508173348 | 56 | 92 | 7.0 | 9.0 | 0.00 | 0.02 | 0.02 | 86 | 1010.6 |
| 20260508172843 | 56 | 75 | 7.0 | 8.0 | 0.00 | 0.02 | 0.02 | 87 | 1010.7 |
| 20260508172341 | 55 | 71 | 8.0 | 8.0 | 0.00 | 0.02 | 0.02 | 87 | 1010.7 |
| 20260508171837 | 54 | 68 | 8.0 | 10.0 | 0.00 | 0.02 | 0.02 | 87 | 1010.8 |
| 20260508171333 | 53 | 97 | 7.0 | 9.0 | 0.00 | 0.02 | 0.02 | 86 | 1010.9 |
| 20260508170830 | 53 | 95 | 7.0 | 8.0 | 0.00 | 0.02 | 0.02 | 87 | 1010.9 |
| 20260508170328 | 53 | 83 | 6.0 | 8.0 | 0.00 | 0.02 | 0.02 | 87 | 1011.2 |
| 20260508165825 | 53 | 101 | 5.0 | 9.0 | 0.00 | 0.02 | 0.02 | 87 | 1011.3 |
| 20260508165322 | 53 | 95 | 6.0 | 9.0 | 0.00 | 0.02 | 0.02 | 87 | 1011.4 |
| 20260508164818 | 53 | 101 | 6.0 | 9.0 | 0.00 | 0.02 | 0.02 | 87 | 1011.5 |
| 20260508164315 | 53 | 88 | 8.0 | 8.0 | 0.02 | 0.02 | 0.02 | 88 | 1011.5 |
| 20260508163813 | 52 | 94 | 7.0 | 10.0 | 0.09 | 0.02 | 0.02 | 87 | 1011.6 |
| 20260508163310 | 53 | 114 | 7.0 | 8.0 | 0.05 | 0.02 | 0.02 | 87 | 1011.6 |
| 20260508162806 | 53 | 103 | 6.0 | 8.0 | 0.02 | 0.01 | 0.01 | 87 | 1011.6 |
| 20260508162306 | 53 | 126 | 9.0 | 14.0 | 0.02 | 0.01 | 0.01 | 85 | 1011.8 |
| 20260508161800 | 54 | 119 | 9.0 | 11.0 | 0.00 | 0.00 | 0.00 | 83 | 1011.6 |
| 20260508161257 | 54 | 99 | 8.0 | 15.0 | 0.00 | 0.00 | 0.00 | 83 | 1011.6 |
| 20260508160755 | 54 | 121 | 7.0 | 14.0 | 0.00 | 0.00 | 0.00 | 84 | 1011.3 |
| 20260508160253 | 54 | 110 | 7.0 | 11.0 | 0.00 | 0.00 | 0.00 | 85 | 1011.5 |
| 20260508155749 | 53 | 121 | 8.0 | 10.0 | 0.00 | 0.00 | 0.00 | 85 | 1011.6 |
| 20260508155246 | 53 | 118 | 7.0 | 12.0 | 0.00 | 0.00 | 0.00 | 85 | 1011.6 |
| 20260508154743 | 53 | 80 | 11.0 | 14.0 | 0.00 | 0.00 | 0.00 | 86 | 1011.7 |
| 20260508154241 | 53 | 129 | 7.0 | 10.0 | 0.00 | 0.00 | 0.00 | 86 | 1011.6 |
| 20260508153737 | 52 | 153 | 5.0 | 13.0 | 0.00 | 0.00 | 0.00 | 86 | 1011.7 |
| 20260508153235 | 53 | 96 | 7.0 | 14.0 | 0.00 | 0.00 | 0.00 | 87 | 1011.6 |
| 20260508152731 | 52 | 90 | 7.0 | 9.0 | 0.00 | 0.00 | 0.00 | 87 | 1011.7 |
| 20260508152226 | 51 | 121 | 6.0 | 13.0 | 0.00 | 0.00 | 0.00 | 87 | 1011.7 |
| 20260508151723 | 51 | 107 | 9.0 | 13.0 | 0.00 | 0.00 | 0.00 | 87 | 1011.9 |
| 20260508151220 | 51 | 122 | 4.0 | 10.0 | 0.00 | 0.00 | 0.00 | 87 | 1011.9 |
| 20260508150716 | 51 | 148 | 8.0 | 9.0 | 0.00 | 0.00 | 0.00 | 87 | 1011.8 |
| 20260508150213 | 51 | 96 | 7.0 | 8.0 | 0.00 | 0.00 | 0.00 | 87 | 1012.0 |
| 20260508145709 | 51 | 148 | 6.0 | 10.0 | 0.00 | 0.00 | 0.00 | 87 | 1012.1 |
| 20260508145205 | 51 | 109 | 5.0 | 7.0 | 0.00 | 0.00 | 0.00 | 87 | 1012.0 |
| 20260508144703 | 51 | 96 | 5.0 | 9.0 | 0.02 | 0.00 | 0.00 | 87 | 1012.0 |
| 20260508144200 | 51 | 106 | 8.0 | 10.0 | 0.02 | 0.00 | 0.00 | 87 | 1012.1 |
| 20260508143658 | 51 | 129 | 2.0 | 14.0 | 0.00 | 0.00 | 0.00 | 88 | 1012.4 |
| 20260508143155 | 51 | 79 | 0.0 | 11.0 | 0.00 | 0.00 | 0.00 | 88 | 1012.6 |
| 20260508142651 | 51 | 193 | 10.0 | 13.0 | 0.00 | 0.00 | 0.00 | 87 | 1012.4 |
| 20260508142148 | 52 | 127 | 6.0 | 10.0 | 0.00 | 0.00 | 0.00 | 86 | 1012.5 |
| 20260508141644 | 52 | 137 | 4.0 | 13.0 | 0.00 | 0.00 | 0.00 | 86 | 1012.4 |
| 20260508141142 | 52 | 114 | 4.0 | 9.0 | 0.00 | 0.00 | 0.00 | 86 | 1012.4 |
| 20260508140639 | 52 | 151 | 5.0 | 11.0 | 0.00 | 0.00 | 0.00 | 86 | 1012.5 |
| 20260508140136 | 52 | 128 | 3.0 | 14.0 | 0.00 | 0.00 | 0.00 | 85 | 1012.4 |
| 20260508135631 | 52 | 138 | 10.0 | 10.0 | 0.00 | 0.00 | 0.00 | 85 | 1012.0 |
| 20260508135127 | 53 | 113 | 4.0 | 10.0 | 0.00 | 0.00 | 0.00 | 85 | 1012.0 |
| 20260508134625 | 52 | 109 | 5.0 | 11.0 | 0.00 | 0.00 | 0.00 | 86 | 1011.9 |
| 20260508134122 | 52 | 114 | 9.0 | 11.0 | 0.00 | 0.00 | 0.00 | 86 | 1012.0 |
| 20260508133618 | 52 | 100 | 8.0 | 8.0 | 0.00 | 0.00 | 0.00 | 86 | 1012.2 |
| 20260508133116 | 52 | 104 | 9.0 | 11.0 | 0.00 | 0.00 | 0.00 | 85 | 1012.2 |
| 20260508132613 | 51 | 131 | 7.0 | 11.0 | 0.00 | 0.00 | 0.00 | 86 | 1012.3 |
| 20260508132110 | 51 | 104 | 5.0 | 9.0 | 0.00 | 0.00 | 0.00 | 86 | 1012.2 |
| 20260508131606 | 51 | 102 | 7.0 | 10.0 | 0.00 | 0.00 | 0.00 | 86 | 1012.0 |
| 20260508131103 | 51 | 99 | 8.0 | 11.0 | 0.00 | 0.00 | 0.00 | 86 | 1011.9 |
| 20260508130559 | 51 | 104 | 6.0 | 8.0 | 0.00 | 0.00 | 0.00 | 86 | 1012.1 |
| 20260508130057 | 51 | 102 | 9.0 | 9.0 | 0.00 | 0.00 | 0.00 | 85 | 1012.1 |
| 20260508125551 | 51 | 111 | 3.0 | 7.0 | 0.00 | 0.00 | 0.00 | 85 | 1012.2 |
| 20260508125049 | 51 | 97 | 7.0 | 7.0 | 0.00 | 0.00 | 0.00 | 86 | 1012.2 |
| 20260508124548 | 50 | 104 | 5.0 | 8.0 | 0.00 | 0.00 | 0.00 | 85 | 1012.2 |
| 20260508124044 | 50 | 99 | 6.0 | 8.0 | 0.00 | 0.00 | 0.00 | 85 | 1012.3 |
| 20260508123543 | 50 | 94 | 7.0 | 8.0 | 0.00 | 0.00 | 0.00 | 85 | 1012.2 |
| 20260508123039 | 50 | 124 | 5.0 | 9.0 | 0.00 | 0.00 | 0.00 | 85 | 1011.9 |
| 20260508122536 | 50 | 94 | 6.0 | 7.0 | 0.00 | 0.00 | 0.00 | 86 | 1012.0 |
| 20260508122033 | 50 | 83 | 5.0 | 8.0 | 0.00 | 0.00 | 0.00 | 86 | 1012.0 |
| 20260508121531 | 50 | 103 | 5.0 | 7.0 | 0.00 | 0.00 | 0.00 | 86 | 1012.0 |
| 20260508121028 | 50 | 94 | 7.0 | 8.0 | 0.00 | 0.00 | 0.00 | 86 | 1012.0 |
| 20260508120525 | 50 | 106 | 6.0 | 8.0 | 0.00 | 0.00 | 0.00 | 85 | 1011.9 |
| 20260508120024 | 50 | 106 | 7.0 | 8.0 | 0.00 | 0.00 | 0.00 | 86 | 1011.9 |
| 20260508115521 | 49 | 99 | 4.0 | 8.0 | 0.00 | 0.00 | 0.00 | 86 | 1012.0 |
| 20260508115017 | 49 | 102 | 6.0 | 6.0 | 0.00 | 0.00 | 0.00 | 86 | 1011.9 |
| 20260508114514 | 49 | 107 | 7.0 | 8.0 | 0.00 | 0.00 | 0.00 | 86 | 1011.9 |
| 20260508114011 | 49 | 96 | 6.0 | 8.0 | 0.00 | 0.00 | 0.00 | 85 | 1011.8 |
| 20260508113509 | 49 | 99 | 6.0 | 9.0 | 0.00 | 0.00 | 0.00 | 86 | 1011.7 |
| 20260508113006 | 49 | 102 | 7.0 | 9.0 | 0.00 | 0.00 | 0.00 | 86 | 1011.7 |
| 20260508112502 | 48 | 107 | 6.0 | 9.0 | 0.00 | 0.00 | 0.00 | 86 | 1011.7 |
| 20260508111959 | 48 | 120 | 5.0 | 8.0 | 0.00 | 0.00 | 0.00 | 86 | 1011.6 |
| 20260508111456 | 48 | 112 | 3.0 | 8.0 | 0.00 | 0.00 | 0.00 | 86 | 1011.8 |
| 20260508110953 | 48 | 96 | 7.0 | 9.0 | 0.00 | 0.00 | 0.00 | 87 | 1011.7 |
| 20260508110451 | 47 | 112 | 5.0 | 7.0 | 0.00 | 0.00 | 0.00 | 87 | 1011.6 |
| 20260508105950 | 47 | 105 | 5.0 | 7.0 | 0.00 | 0.00 | 0.00 | 88 | 1011.7 |
| 20260508105447 | 47 | 122 | 5.0 | 9.0 | 0.00 | 0.00 | 0.00 | 88 | 1011.6 |
| 20260508104944 | 46 | 106 | 6.0 | 8.0 | 0.00 | 0.00 | 0.00 | 88 | 1011.4 |
| 20260508104442 | 46 | 107 | 5.0 | 8.0 | 0.00 | 0.00 | 0.00 | 88 | 1011.7 |
| 20260508103938 | 46 | 130 | 5.0 | 7.0 | 0.00 | 0.00 | 0.00 | 88 | 1011.6 |
| 20260508103435 | 46 | 114 | 5.0 | 7.0 | 0.00 | 0.00 | 0.00 | 88 | 1011.4 |
| 20260508102932 | 46 | 114 | 6.0 | 8.0 | 0.00 | 0.00 | 0.00 | 88 | 1011.4 |
| 20260508102431 | 46 | 108 | 5.0 | 7.0 | 0.00 | 0.00 | 0.00 | 88 | 1011.1 |
| 20260508101927 | 45 | 108 | 9.0 | 9.0 | 0.00 | 0.00 | 0.00 | 88 | 1011.3 |
| 20260508101425 | 45 | 106 | 5.0 | 7.0 | 0.00 | 0.00 | 0.00 | 88 | 1011.2 |
| 20260508100922 | 45 | 99 | 5.0 | 8.0 | 0.00 | 0.00 | 0.00 | 88 | 1011.1 |
| 20260508100421 | 45 | 99 | 4.0 | 7.0 | 0.00 | 0.00 | 0.00 | 88 | 1011.4 |
| 20260508095916 | 45 | 121 | 5.0 | 7.0 | 0.00 | 0.00 | 0.00 | 88 | 1011.4 |
| 20260508095414 | 45 | 104 | 6.0 | 7.0 | 0.00 | 0.00 | 0.00 | 88 | 1011.6 |
| 20260508094910 | 46 | 101 | 6.0 | 7.0 | 0.00 | 0.00 | 0.00 | 88 | 1011.5 |
| 20260508094408 | 46 | 110 | 5.0 | 7.0 | 0.00 | 0.00 | 0.00 | 88 | 1011.8 |
| 20260508093904 | 46 | 115 | 6.0 | 8.0 | 0.00 | 0.00 | 0.00 | 88 | 1011.4 |
| 20260508093402 | 45 | 99 | 4.0 | 7.0 | 0.00 | 0.00 | 0.00 | 88 | 1011.6 |
| 20260508092859 | 46 | 94 | 5.0 | 7.0 | 0.00 | 0.00 | 0.00 | 88 | 1011.7 |
| 20260508092357 | 45 | 100 | 7.0 | 7.0 | 0.00 | 0.00 | 0.00 | 89 | 1011.5 |
| 20260508091856 | 45 | 101 | 7.0 | 7.0 | 0.00 | 0.00 | 0.00 | 89 | 1011.7 |
| 20260508091351 | 45 | 112 | 5.0 | 8.0 | 0.00 | 0.00 | 0.00 | 89 | 1011.4 |
| 20260508090849 | 45 | 89 | 7.0 | 8.0 | 0.00 | 0.00 | 0.00 | 89 | 1011.5 |
| 20260508090348 | 45 | 91 | 6.0 | 7.0 | 0.00 | 0.00 | 0.00 | 89 | 1011.9 |
| 20260508085843 | 45 | 103 | 6.0 | 7.0 | 0.00 | 0.00 | 0.00 | 89 | 1011.9 |
| 20260508085340 | 45 | 100 | 6.0 | 7.0 | 0.00 | 0.00 | 0.00 | 89 | 1011.5 |
| 20260508084837 | 44 | 89 | 6.0 | 7.0 | 0.00 | 0.00 | 0.00 | 88 | 1011.5 |
| 20260508084333 | 45 | 114 | 4.0 | 6.0 | 0.00 | 0.00 | 0.00 | 88 | 1011.5 |
| 20260508083831 | 45 | 118 | 5.0 | 9.0 | 0.00 | 0.00 | 0.00 | 89 | 1011.5 |
| 20260508083328 | 45 | 122 | 5.0 | 8.0 | 0.00 | 0.00 | 0.00 | 89 | 1011.5 |
| 20260508082828 | 45 | 113 | 6.0 | 8.0 | 0.00 | 0.00 | 0.00 | 88 | 1011.3 |
| 20260508082326 | 45 | 107 | 7.0 | 8.0 | 0.00 | 0.00 | 0.00 | 88 | 1011.7 |
| 20260508081823 | 45 | 121 | 5.0 | 6.0 | 0.00 | 0.00 | 0.00 | 89 | 1011.7 |
| 20260508081320 | 45 | 99 | 6.0 | 7.0 | 0.00 | 0.00 | 0.00 | 88 | 1011.6 |
| 20260508080817 | 45 | 115 | 4.0 | 10.0 | 0.00 | 0.00 | 0.00 | 89 | 1011.5 |
| 20260508080315 | 45 | 94 | 9.0 | 9.0 | 0.00 | 0.00 | 0.00 | 88 | 1011.5 |
| 20260508075811 | 45 | 125 | 4.0 | 8.0 | 0.00 | 0.00 | 0.00 | 89 | 1011.7 |
| 20260508075309 | 45 | 109 | 6.0 | 8.0 | 0.00 | 0.00 | 0.00 | 89 | 1011.3 |
| 20260508074806 | 44 | 120 | 8.0 | 9.0 | 0.00 | 0.00 | 0.00 | 89 | 1011.6 |
| 20260508074303 | 45 | 90 | 5.0 | 6.0 | 0.00 | 0.00 | 0.00 | 89 | 1011.4 |
| 20260508073800 | 45 | 121 | 4.0 | 7.0 | 0.00 | 0.00 | 0.00 | 89 | 1011.3 |
| 20260508073258 | 45 | 107 | 5.0 | 8.0 | 0.00 | 0.00 | 0.00 | 89 | 1011.4 |
| 20260508072753 | 45 | 107 | 6.0 | 9.0 | 0.00 | 0.00 | 0.00 | 89 | 1011.7 |
| 20260508072251 | 45 | 115 | 8.0 | 8.0 | 0.00 | 0.00 | 0.00 | 90 | 1011.5 |
| 20260508071748 | 45 | 107 | 6.0 | 9.0 | 0.00 | 0.00 | 0.00 | 90 | 1011.4 |
| 20260508071246 | 44 | 118 | 8.0 | 9.0 | 0.00 | 0.00 | 0.00 | 90 | 1011.5 |
| 20260508070743 | 45 | 98 | 7.0 | 8.0 | 0.00 | 0.00 | 0.00 | 91 | 1011.6 |
| 20260508070242 | 45 | 112 | 6.0 | 7.0 | 0.00 | 0.00 | 0.00 | 91 | 1011.5 |
| 20260508065738 | 44 | 117 | 5.0 | 7.0 | 0.00 | 0.00 | 0.00 | 91 | 1011.5 |
| 20260508065237 | 45 | 119 | 6.0 | 9.0 | 0.00 | 0.00 | 0.00 | 92 | 1011.6 |
| 20260508064734 | 44 | 92 | 6.0 | 9.0 | 0.00 | 0.00 | 0.00 | 92 | 1011.9 |
| 20260508064232 | 44 | 120 | 6.0 | 9.0 | 0.00 | 0.00 | 0.00 | 92 | 1011.6 |
| 20260508063729 | 44 | 93 | 6.0 | 9.0 | 0.00 | 0.00 | 0.00 | 92 | 1011.8 |
| 20260508063227 | 44 | 104 | 6.0 | 7.0 | 0.00 | 0.00 | 0.00 | 93 | 1011.7 |
| 20260508062724 | 44 | 99 | 7.0 | 9.0 | 0.00 | 0.00 | 0.00 | 93 | 1011.7 |
| 20260508062222 | 44 | 111 | 6.0 | 9.0 | 0.00 | 0.00 | 0.00 | 93 | 1011.7 |
| 20260508061718 | 44 | 103 | 6.0 | 7.0 | 0.00 | 0.00 | 0.00 | 93 | 1011.8 |
| 20260508061216 | 44 | 107 | 5.0 | 9.0 | 0.00 | 0.00 | 0.00 | 93 | 1011.8 |
| 20260508060712 | 44 | 89 | 6.0 | 9.0 | 0.00 | 0.00 | 0.00 | 93 | 1011.8 |
| 20260508060210 | 44 | 110 | 7.0 | 8.0 | 0.00 | 0.00 | 0.00 | 93 | 1012.0 |
| 20260508055705 | 44 | 97 | 5.0 | 8.0 | 0.00 | 0.00 | 0.00 | 93 | 1011.8 |
| 20260508055202 | 44 | 101 | 5.0 | 7.0 | 0.00 | 0.00 | 0.00 | 93 | 1011.9 |
| 20260508054658 | 44 | 98 | 6.0 | 8.0 | 0.00 | 0.00 | 0.00 | 93 | 1012.3 |
| 20260508054156 | 44 | 99 | 5.0 | 8.0 | 0.00 | 0.00 | 0.00 | 93 | 1012.1 |
| 20260508053653 | 44 | 92 | 7.0 | 8.0 | 0.00 | 0.00 | 0.00 | 93 | 1012.0 |
| 20260508053151 | 44 | 98 | 6.0 | 8.0 | 0.00 | 0.00 | 0.00 | 93 | 1011.9 |
| 20260508052648 | 44 | 94 | 6.0 | 7.0 | 0.00 | 0.00 | 0.00 | 93 | 1012.1 |
| 20260508052145 | 44 | 93 | 6.0 | 7.0 | 0.00 | 0.00 | 0.00 | 93 | 1012.1 |
| 20260508051641 | 44 | 92 | 6.0 | 6.0 | 0.00 | 0.00 | 0.00 | 93 | 1012.2 |
| 20260508051136 | 44 | 105 | 6.0 | 7.0 | 0.00 | 0.00 | 0.00 | 93 | 1012.1 |
| 20260508050633 | 44 | 98 | 5.0 | 7.0 | 0.00 | 0.00 | 0.00 | 93 | 1012.1 |
| 20260508050131 | 44 | 90 | 7.0 | 8.0 | 0.00 | 0.00 | 0.00 | 93 | 1012.2 |
| 20260508045626 | 44 | 93 | 7.0 | 8.0 | 0.00 | 0.00 | 0.00 | 93 | 1012.3 |
| 20260508045124 | 44 | 90 | 6.0 | 7.0 | 0.00 | 0.00 | 0.00 | 93 | 1012.4 |
| 20260508044621 | 45 | 86 | 5.0 | 7.0 | 0.00 | 0.00 | 0.00 | 93 | 1012.2 |
| 20260508044117 | 44 | 85 | 6.0 | 7.0 | 0.00 | 0.00 | 0.00 | 92 | 1012.2 |
| 20260508043614 | 45 | 83 | 7.0 | 8.0 | 0.00 | 0.00 | 0.00 | 92 | 1012.2 |
| 20260508043112 | 45 | 87 | 7.0 | 8.0 | 0.00 | 0.00 | 0.00 | 92 | 1012.2 |
| 20260508042608 | 45 | 91 | 6.0 | 7.0 | 0.00 | 0.00 | 0.00 | 92 | 1012.2 |
| 20260508042106 | 45 | 94 | 6.0 | 8.0 | 0.00 | 0.00 | 0.00 | 92 | 1012.1 |
| 20260508041601 | 45 | 90 | 7.0 | 8.0 | 0.00 | 0.00 | 0.00 | 92 | 1012.3 |
| 20260508041058 | 45 | 93 | 8.0 | 9.0 | 0.00 | 0.00 | 0.00 | 92 | 1012.1 |
| 20260508040555 | 45 | 82 | 7.0 | 7.0 | 0.00 | 0.00 | 0.00 | 92 | 1011.9 |
| 20260508040053 | 46 | 80 | 7.0 | 7.0 | 0.00 | 0.05 | 0.05 | 92 | 1012.2 |
| 20260508035549 | 46 | 85 | 7.0 | 8.0 | 0.00 | 0.05 | 0.05 | 92 | 1012.1 |
| 20260508035047 | 46 | 77 | 8.0 | 8.0 | 0.00 | 0.05 | 0.05 | 92 | 1012.1 |
| 20260508034543 | 46 | 73 | 8.0 | 8.0 | 0.00 | 0.05 | 0.05 | 92 | 1012.1 |
| 20260508034041 | 46 | 86 | 7.0 | 7.0 | 0.00 | 0.05 | 0.05 | 91 | 1012.2 |
| 20260508033538 | 46 | 82 | 7.0 | 8.0 | 0.00 | 0.05 | 0.05 | 91 | 1012.0 |
| 20260508033036 | 47 | 81 | 9.0 | 9.0 | 0.00 | 0.05 | 0.05 | 91 | 1012.1 |
| 20260508032532 | 47 | 88 | 6.0 | 8.0 | 0.00 | 0.05 | 0.05 | 91 | 1012.1 |
| 20260508032030 | 46 | 84 | 7.0 | 8.0 | 0.00 | 0.05 | 0.05 | 91 | 1012.3 |
| 20260508031527 | 46 | 86 | 8.0 | 8.0 | 0.00 | 0.05 | 0.05 | 91 | 1012.4 |
| 20260508031022 | 47 | 87 | 8.0 | 9.0 | 0.00 | 0.05 | 0.05 | 90 | 1012.3 |
| 20260508030520 | 47 | 84 | 8.0 | 10.0 | 0.00 | 0.05 | 0.05 | 90 | 1012.7 |
| 20260508030018 | 47 | 80 | 8.0 | 9.0 | 0.00 | 0.05 | 0.05 | 89 | 1012.8 |
| 20260508025513 | 47 | 82 | 7.0 | 7.0 | 0.00 | 0.05 | 0.05 | 89 | 1013.0 |
| 20260508025011 | 47 | 80 | 7.0 | 7.0 | 0.02 | 0.05 | 0.05 | 88 | 1012.8 |
| 20260508024507 | 48 | 72 | 6.0 | 8.0 | 0.00 | 0.04 | 0.04 | 88 | 1012.7 |
| 20260508024004 | 48 | 76 | 7.0 | 8.0 | 0.09 | 0.04 | 0.04 | 87 | 1012.8 |
| 20260508023500 | 48 | 98 | 5.0 | 8.0 | 0.12 | 0.04 | 0.04 | 87 | 1012.9 |
| 20260508022958 | 49 | 73 | 6.0 | 9.0 | 0.07 | 0.02 | 0.02 | 86 | 1013.0 |
| 20260508022453 | 49 | 81 | 6.0 | 7.0 | 0.07 | 0.02 | 0.02 | 85 | 1012.8 |
| 20260508021950 | 49 | 80 | 6.0 | 6.0 | 0.07 | 0.01 | 0.01 | 83 | 1012.4 |
| 20260508021446 | 50 | 69 | 7.0 | 7.0 | 0.02 | 0.00 | 0.00 | 80 | 1012.1 |
| 20260508020942 | 50 | 95 | 7.0 | 7.0 | 0.00 | 0.00 | 0.00 | 77 | 1012.0 |
| 20260508020440 | 51 | 72 | 6.0 | 7.0 | 0.00 | 0.00 | 0.00 | 76 | 1011.8 |
| 20260508015937 | 51 | 92 | 5.0 | 10.0 | 0.00 | 0.00 | 0.00 | 74 | 1011.9 |
| 20260508015435 | 51 | 102 | 8.0 | 10.0 | 0.00 | 0.00 | 0.00 | 73 | 1011.7 |
| 20260508014931 | 51 | 90 | 7.0 | 11.0 | 0.00 | 0.00 | 0.00 | 73 | 1011.5 |
| 20260508014428 | 51 | 86 | 8.0 | 13.0 | 0.00 | 0.00 | 0.00 | 73 | 1011.6 |
| 20260508013924 | 51 | 92 | 9.0 | 12.0 | 0.00 | 0.00 | 0.00 | 72 | 1011.4 |
| 20260508013420 | 51 | 101 | 7.0 | 9.0 | 0.00 | 0.00 | 0.00 | 72 | 1011.5 |
| 20260508012918 | 51 | 99 | 7.0 | 10.0 | 0.00 | 0.00 | 0.00 | 71 | 1011.5 |
| 20260508012414 | 51 | 108 | 7.0 | 12.0 | 0.00 | 0.00 | 0.00 | 71 | 1011.5 |
| 20260508011912 | 51 | 88 | 9.0 | 11.0 | 0.00 | 0.00 | 0.00 | 70 | 1011.4 |
| 20260508011410 | 51 | 121 | 9.0 | 12.0 | 0.00 | 0.00 | 0.00 | 70 | 1011.3 |
| 20260508010907 | 51 | 117 | 8.0 | 11.0 | 0.00 | 0.00 | 0.00 | 70 | 1011.3 |
| 20260508010404 | 52 | 82 | 8.0 | 15.0 | 0.00 | 0.00 | 0.00 | 69 | 1011.5 |
| 20260508005901 | 52 | 87 | 10.0 | 12.0 | 0.00 | 0.00 | 0.00 | 68 | 1011.5 |
| 20260508005358 | 52 | 90 | 6.0 | 11.0 | 0.00 | 0.00 | 0.00 | 67 | 1011.5 |
| 20260508004854 | 52 | 121 | 9.0 | 14.0 | 0.00 | 0.00 | 0.00 | 66 | 1011.6 |
| 20260508004350 | 52 | 124 | 10.0 | 13.0 | 0.00 | 0.00 | 0.00 | 65 | 1011.5 |
| 20260508003847 | 53 | 121 | 5.0 | 11.0 | 0.00 | 0.00 | 0.00 | 65 | 1011.6 |
| 20260508003344 | 52 | 141 | 8.0 | 12.0 | 0.00 | 0.00 | 0.00 | 64 | 1011.4 |
| 20260508002841 | 53 | 102 | 6.0 | 15.0 | 0.00 | 0.00 | 0.00 | 64 | 1011.7 |
| 20260508002338 | 53 | 121 | 9.0 | 11.0 | 0.00 | 0.00 | 0.00 | 63 | 1011.3 |
| 20260508001834 | 53 | 68 | 5.0 | 9.0 | 0.00 | 0.00 | 0.00 | 63 | 1011.4 |
| 20260508001330 | 53 | 85 | 7.0 | 11.0 | 0.00 | 0.00 | 0.00 | 62 | 1011.3 |
| 20260508000826 | 53 | 93 | 8.0 | 13.0 | 0.00 | 0.00 | 0.00 | 62 | 1011.1 |
| 20260508000323 | 53 | 99 | 5.0 | 12.0 | 0.00 | 0.00 | 0.00 | 61 | 1011.5 |
| 20260507235820 | 53 | 132 | 6.0 | 10.0 | 0.00 | 0.00 | 0.00 | 62 | 1011.6 |
| 20260507235317 | 53 | 116 | 7.0 | 10.0 | 0.00 | 0.00 | 0.00 | 61 | 1011.8 |
| 20260507234814 | 53 | 93 | 5.0 | 7.0 | 0.00 | 0.00 | 0.00 | 61 | 1011.5 |
| 20260507234311 | 53 | 98 | 6.0 | 8.0 | 0.00 | 0.00 | 0.00 | 61 | 1011.5 |
| 20260507233807 | 53 | 116 | 6.0 | 11.0 | 0.00 | 0.00 | 0.00 | 60 | 1011.7 |
| 20260507233305 | 53 | 91 | 5.0 | 11.0 | 0.00 | 0.00 | 0.00 | 60 | 1011.4 |
| 20260507232803 | 53 | 139 | 9.0 | 13.0 | 0.00 | 0.00 | 0.00 | 60 | 1012.0 |
| 20260507232259 | 53 | 102 | 9.0 | 9.0 | 0.00 | 0.00 | 0.00 | 61 | 1011.7 |
| 20260507231755 | 53 | 142 | 4.0 | 9.0 | 0.00 | 0.00 | 0.00 | 60 | 1011.6 |
| 20260507231253 | 53 | 125 | 7.0 | 12.0 | 0.00 | 0.00 | 0.00 | 59 | 1011.7 |